Location: Castellar de la Frontera
(36.3200°N, 5.4500°W)
Time: 02:17:06
(UTC+02:00)

ISS - Pass Details

Date: 19 July 2018
Orbit: 402 x 408 km, 51.6° (Epoch: 17 July)

Event Time Altitude Azimuth Distance (km) Brightness Sun altitude
Rises 06:17:58 0° 316° (NW) 2,328 -0.1 -11.2°
Reaches altitude 10° 06:20:06 10° 322° (NW) 1,465 -1.0 -10.8°
Maximum altitude 06:23:17 46° 38° (NE) 555 -2.6 -10.3°
Drops below altitude 10° 06:26:27 10° 113° (ESE) 1,459 -0.6 -9.8°
Sets 06:28:35 0° 119° (ESE) 2,316 0.4 -9.5°
